Time,TemperatureF,DewpointF,PressureIn,WindDirection,WindDirectionDegrees,WindSpeedMPH,WindSpeedGustMPH,Humidity,HourlyPrecipIn,Conditions,Clouds,dailyrainin,SoftwareType,DateUTC
2013-06-23 00:01:00,75.4,74.8,30.21,WSW,248,0.0,0.0,98,0.00,RA,,0.00,WeatherDisplay:10.37,2013-06-23 04:01:00,
2013-06-23 00:06:00,75.6,75.0,30.21,West,270,0.0,0.0,98,0.00,RA,,0.00,WeatherDisplay:10.37,2013-06-23 04:06:00,
2013-06-23 00:11:00,75.6,75.0,30.21,West,270,3.5,3.5,98,0.00,CLR,,0.00,WeatherDisplay:10.37,2013-06-23 04:11:00,
2013-06-23 00:16:00,75.6,75.0,30.21,West,270,3.5,3.5,98,0.00,CLR,,0.00,WeatherDisplay:10.37,2013-06-23 04:16:00,
2013-06-23 00:21:00,75.6,75.0,30.21,WSW,248,3.5,3.5,98,0.00,CLR,,0.00,WeatherDisplay:10.37,2013-06-23 04:21:00,
2013-06-23 00:26:00,75.6,75.0,30.21,WSW,248,0.0,0.0,98,0.00,CLR,,0.00,WeatherDisplay:10.37,2013-06-23 04:26:00,
2013-06-23 00:31:00,75.6,75.0,30.21,West,270,3.8,3.8,98,0.00,CLR,,0.00,WeatherDisplay:10.37,2013-06-23 04:31:00,
2013-06-23 00:36:00,75.6,75.0,30.21,West,270,3.5,3.5,98,0.00,CLR,,0.00,WeatherDisplay:10.37,2013-06-23 04:36:00,
2013-06-23 00:41:00,75.6,75.0,30.21,West,270,3.5,3.5,98,0.00,CLR,,0.00,WeatherDisplay:10.37,2013-06-23 04:41:00,
2013-06-23 00:46:00,75.6,75.0,30.21,WSW,248,3.5,3.5,98,0.00,CLR,,0.00,WeatherDisplay:10.37,2013-06-23 04:46:00,
2013-06-23 00:51:00,75.6,75.0,30.21,WSW,248,0.0,0.0,98,0.00,CLR,,0.00,WeatherDisplay:10.37,2013-06-23 04:51:00,
2013-06-23 00:56:00,75.4,74.8,30.21,WSW,248,0.0,0.0,98,0.00,CLR,,0.00,WeatherDisplay:10.37,2013-06-23 04:56:00,
2013-06-23 01:01:00,75.4,74.8,30.21,WSW,248,0.0,0.0,98,0.00,CLR,,0.00,WeatherDisplay:10.37,2013-06-23 05:01:00,
2013-06-23 01:06:00,75.2,74.6,30.21,WSW,248,0.0,0.0,98,0.00,CLR,,0.00,WeatherDisplay:10.37,2013-06-23 05:06:00,
2013-06-23 01:11:00,75.2,74.6,30.21,WSW,248,0.0,0.0,98,0.00,CLR,,0.00,WeatherDisplay:10.37,2013-06-23 05:11:00,
2013-06-23 01:16:00,75.2,74.6,30.21,WSW,248,0.0,0.0,98,0.00,CLR,,0.00,WeatherDisplay:10.37,2013-06-23 05:16:00,
2013-06-23 01:21:00,75.2,74.6,30.21,WSW,248,0.0,0.0,98,0.00,CLR,,0.00,WeatherDisplay:10.37,2013-06-23 05:21:00,
2013-06-23 01:26:00,75.2,74.6,30.21,WSW,248,0.0,0.0,98,0.00,CLR,,0.00,WeatherDisplay:10.37,2013-06-23 05:26:00,
2013-06-23 01:31:00,75.2,74.6,30.21,WSW,248,0.0,0.0,98,0.00,CLR,,0.00,WeatherDisplay:10.37,2013-06-23 05:31:00,
2013-06-23 01:36:00,75.4,74.8,30.21,WSW,248,2.3,2.3,98,0.00,CLR,,0.00,WeatherDisplay:10.37,2013-06-23 05:36:00,
2013-06-23 01:41:00,75.4,74.8,30.21,WSW,248,0.0,0.0,98,0.00,CLR,,0.00,WeatherDisplay:10.37,2013-06-23 05:41:00,
2013-06-23 01:46:00,75.6,75.0,30.21,WSW,248,0.0,0.0,98,0.00,CLR,,0.00,WeatherDisplay:10.37,2013-06-23 05:46:00,
2013-06-23 01:51:00,75.6,75.0,30.21,WSW,248,0.0,0.0,98,0.00,CLR,,0.00,WeatherDisplay:10.37,2013-06-23 05:51:00,
2013-06-23 01:56:00,75.4,74.8,30.21,WSW,248,0.0,0.0,98,0.00,CLR,,0.00,WeatherDisplay:10.37,2013-06-23 05:56:00,
2013-06-23 02:01:00,75.4,74.8,30.21,WSW,248,0.0,0.0,98,0.00,CLR,,0.00,WeatherDisplay:10.37,2013-06-23 06:01:00,
2013-06-23 02:06:00,75.2,74.6,30.21,WSW,248,0.0,0.0,98,0.00,CLR,,0.00,WeatherDisplay:10.37,2013-06-23 06:06:00,
2013-06-23 02:11:00,75.0,74.4,30.21,WSW,248,0.0,0.0,98,0.00,CLR,,0.00,WeatherDisplay:10.37,2013-06-23 06:11:00,
2013-06-23 02:16:00,74.8,74.2,30.21,WSW,248,0.0,0.0,98,0.00,CLR,,0.00,WeatherDisplay:10.37,2013-06-23 06:16:00,
2013-06-23 02:21:00,74.8,74.2,30.21,WSW,248,0.0,0.0,98,0.00,CLR,,0.00,WeatherDisplay:10.37,2013-06-23 06:21:00,
2013-06-23 02:26:00,74.7,74.1,30.21,WSW,248,0.0,0.0,98,0.00,CLR,,0.00,WeatherDisplay:10.37,2013-06-23 06:26:00,
2013-06-23 02:31:00,74.7,74.1,30.21,WSW,248,0.0,0.0,98,0.00,CLR,,0.00,WeatherDisplay:10.37,2013-06-23 06:31:00,
2013-06-23 02:36:00,74.5,73.9,30.21,WSW,248,0.0,0.0,98,0.00,CLR,,0.00,WeatherDisplay:10.37,2013-06-23 06:36:00,
2013-06-23 02:41:00,74.5,73.9,30.21,WSW,248,0.0,0.0,98,0.00,CLR,,0.00,WeatherDisplay:10.37,2013-06-23 06:41:00,
2013-06-23 02:46:00,74.5,73.9,30.21,WSW,248,0.0,0.0,98,0.00,CLR,,0.00,WeatherDisplay:10.37,2013-06-23 06:46:00,
2013-06-23 02:51:00,74.5,73.9,30.21,WSW,248,0.0,0.0,98,0.00,CLR,,0.00,WeatherDisplay:10.37,2013-06-23 06:51:00,
2013-06-23 02:56:00,74.5,73.9,30.21,WSW,248,0.0,0.0,98,0.00,CLR,,0.00,WeatherDisplay:10.37,2013-06-23 06:56:00,
2013-06-23 03:01:00,74.5,73.9,30.21,WSW,248,0.0,0.0,98,0.00,CLR,,0.00,WeatherDisplay:10.37,2013-06-23 07:01:00,
2013-06-23 03:06:00,74.5,73.9,30.21,WSW,248,0.0,0.0,98,0.00,CLR,,0.00,WeatherDisplay:10.37,2013-06-23 07:06:00,
2013-06-23 03:11:00,74.5,73.9,30.21,WSW,248,0.0,0.0,98,0.00,CLR,,0.00,WeatherDisplay:10.37,2013-06-23 07:11:00,
2013-06-23 03:16:00,74.3,73.7,30.21,WSW,248,0.0,0.0,98,0.00,CLR,,0.00,WeatherDisplay:10.37,2013-06-23 07:16:00,
2013-06-23 03:21:00,74.3,73.7,30.21,WSW,248,0.0,0.0,98,0.00,CLR,,0.00,WeatherDisplay:10.37,2013-06-23 07:21:00,
2013-06-23 03:26:00,73.9,73.3,30.21,WSW,248,0.0,0.0,98,0.00,CLR,,0.00,WeatherDisplay:10.37,2013-06-23 07:26:00,
2013-06-23 03:31:00,73.9,73.3,30.21,WSW,248,0.0,0.0,98,0.00,CLR,,0.00,WeatherDisplay:10.37,2013-06-23 07:31:00,
2013-06-23 03:36:00,73.9,73.3,30.21,WSW,248,0.0,0.0,98,0.00,CLR,,0.00,WeatherDisplay:10.37,2013-06-23 07:36:00,
2013-06-23 03:41:00,73.8,73.2,30.21,WSW,248,0.0,0.0,98,0.00,CLR,,0.00,WeatherDisplay:10.37,2013-06-23 07:41:00,
2013-06-23 03:46:00,73.8,73.2,30.21,WSW,248,0.0,0.0,98,0.00,CLR,,0.00,WeatherDisplay:10.37,2013-06-23 07:46:00,
2013-06-23 03:51:00,73.8,73.2,30.21,WSW,248,0.0,0.0,98,0.00,CLR,,0.00,WeatherDisplay:10.37,2013-06-23 07:51:00,
2013-06-23 03:56:00,73.8,73.2,30.21,WSW,248,0.0,0.0,98,0.00,CLR,,0.00,WeatherDisplay:10.37,2013-06-23 07:56:00,
2013-06-23 04:01:00,73.8,73.2,30.21,WSW,248,0.0,0.0,98,0.00,CLR,,0.00,WeatherDisplay:10.37,2013-06-23 08:01:00,
2013-06-23 04:06:00,73.9,73.3,30.21,WSW,248,0.0,0.0,98,0.00,CLR,,0.00,WeatherDisplay:10.37,2013-06-23 08:06:00,
2013-06-23 04:11:00,74.3,73.7,30.21,WSW,248,0.0,0.0,98,0.00,CLR,,0.00,WeatherDisplay:10.37,2013-06-23 08:11:00,
2013-06-23 04:16:00,74.7,74.1,30.21,WSW,248,0.0,0.0,98,0.00,CLR,,0.00,WeatherDisplay:10.37,2013-06-23 08:16:00,
2013-06-23 04:21:00,74.5,73.9,30.21,WSW,248,0.0,0.0,98,0.00,CLR,,0.00,WeatherDisplay:10.37,2013-06-23 08:21:00,
2013-06-23 04:26:00,74.3,73.7,30.21,WSW,248,0.0,0.0,98,0.00,CLR,,0.00,WeatherDisplay:10.37,2013-06-23 08:26:00,
2013-06-23 04:31:00,74.3,73.7,30.21,WSW,248,0.0,0.0,98,0.00,CLR,,0.00,WeatherDisplay:10.37,2013-06-23 08:31:00,
2013-06-23 04:36:00,74.1,73.5,30.21,WSW,248,0.0,0.0,98,0.00,CLR,,0.00,WeatherDisplay:10.37,2013-06-23 08:36:00,
2013-06-23 04:41:00,74.1,73.5,30.21,WSW,248,0.0,0.0,98,0.00,CLR,,0.00,WeatherDisplay:10.37,2013-06-23 08:41:00,
2013-06-23 04:46:00,74.1,73.5,30.21,WSW,248,0.0,0.0,98,0.00,CLR,,0.00,WeatherDisplay:10.37,2013-06-23 08:46:00,
2013-06-23 04:51:00,74.3,73.7,30.21,WSW,248,0.0,0.0,98,0.00,CLR,,0.00,WeatherDisplay:10.37,2013-06-23 08:51:00,
2013-06-23 04:56:00,74.3,73.7,30.21,WSW,248,0.0,0.0,98,0.00,CLR,,0.00,WeatherDisplay:10.37,2013-06-23 08:56:00,
2013-06-23 05:01:00,73.9,73.3,30.21,WSW,248,0.0,0.0,98,0.00,CLR,,0.00,WeatherDisplay:10.37,2013-06-23 09:01:00,
2013-06-23 05:06:00,73.9,73.3,30.21,WSW,248,0.0,0.0,98,0.00,CLR,,0.00,WeatherDisplay:10.37,2013-06-23 09:06:00,
2013-06-23 05:11:00,73.9,73.3,30.21,WSW,248,0.0,0.0,98,0.00,CLR,,0.00,WeatherDisplay:10.37,2013-06-23 09:11:00,
2013-06-23 05:16:00,73.8,73.2,30.21,WSW,248,0.0,0.0,98,0.00,CLR,,0.00,WeatherDisplay:10.37,2013-06-23 09:16:00,
2013-06-23 05:21:00,73.8,73.2,30.21,WSW,248,0.0,0.0,98,0.00,CLR,,0.00,WeatherDisplay:10.37,2013-06-23 09:21:00,
2013-06-23 05:26:00,73.8,73.2,30.21,WSW,248,0.0,0.0,98,0.00,CLR,,0.00,WeatherDisplay:10.37,2013-06-23 09:26:00,
2013-06-23 05:31:00,73.8,73.2,30.21,WSW,248,0.0,0.0,98,0.00,CLR,,0.00,WeatherDisplay:10.37,2013-06-23 09:31:00,
2013-06-23 05:36:00,73.8,73.2,30.21,WSW,248,0.0,0.0,98,0.00,CLR,,0.00,WeatherDisplay:10.37,2013-06-23 09:36:00,
2013-06-23 05:42:00,73.6,73.0,30.21,WSW,248,0.0,0.0,98,0.00,CLR,,0.00,WeatherDisplay:10.37,2013-06-23 09:42:00,
2013-06-23 05:47:00,73.6,73.0,30.21,WSW,248,0.0,0.0,98,0.00,CLR,,0.00,WeatherDisplay:10.37,2013-06-23 09:47:00,
2013-06-23 05:52:00,73.4,72.8,30.21,WSW,248,0.0,0.0,98,0.00,CLR,,0.00,WeatherDisplay:10.37,2013-06-23 09:52:00,
2013-06-23 05:57:00,73.2,72.6,30.21,WSW,248,0.0,0.0,98,0.00,CLR,,0.00,WeatherDisplay:10.37,2013-06-23 09:57:00,
2013-06-23 06:02:00,73.2,72.6,30.21,WSW,248,0.0,0.0,98,0.00,CLR,,0.00,WeatherDisplay:10.37,2013-06-23 10:02:00,
2013-06-23 06:07:00,73.0,72.4,30.21,WSW,248,0.0,0.0,98,0.00,CLR,,0.00,WeatherDisplay:10.37,2013-06-23 10:07:00,
2013-06-23 06:12:00,73.0,72.4,30.21,WSW,248,0.0,0.0,98,0.00,CLR,,0.00,WeatherDisplay:10.37,2013-06-23 10:12:00,
2013-06-23 06:17:00,72.9,72.3,30.21,WSW,248,0.0,0.0,98,0.00,CLR,,0.00,WeatherDisplay:10.37,2013-06-23 10:17:00,
2013-06-23 06:22:00,72.9,72.3,30.21,WSW,248,0.0,0.0,98,0.00,CLR,,0.00,WeatherDisplay:10.37,2013-06-23 10:22:00,
2013-06-23 06:27:00,72.9,72.3,30.21,WSW,248,0.0,0.0,98,0.00,CLR,,0.00,WeatherDisplay:10.37,2013-06-23 10:27:00,
2013-06-23 06:32:00,72.9,72.3,30.21,WSW,248,0.0,0.0,98,0.00,CLR,,0.00,WeatherDisplay:10.37,2013-06-23 10:32:00,
2013-06-23 06:37:00,72.9,72.3,30.21,WSW,248,0.0,0.0,98,0.00,CLR,,0.00,WeatherDisplay:10.37,2013-06-23 10:37:00,
2013-06-23 06:42:00,73.0,72.4,30.21,WSW,248,0.0,0.0,98,0.00,CLR,,0.00,WeatherDisplay:10.37,2013-06-23 10:42:00,
2013-06-23 06:47:00,73.2,72.6,30.21,WSW,248,0.0,0.0,98,0.00,CLR,,0.00,WeatherDisplay:10.37,2013-06-23 10:47:00,
2013-06-23 06:52:00,73.4,72.8,30.21,WSW,248,0.0,0.0,98,0.00,CLR,,0.00,WeatherDisplay:10.37,2013-06-23 10:52:00,
2013-06-23 06:57:00,73.6,73.0,30.21,WSW,248,0.0,0.0,98,0.00,CLR,,0.00,WeatherDisplay:10.37,2013-06-23 10:57:00,
2013-06-23 07:02:00,74.1,73.5,30.21,WSW,248,0.0,0.0,98,0.00,CLR,,0.00,WeatherDisplay:10.37,2013-06-23 11:02:00,
2013-06-23 07:07:00,74.5,73.9,30.21,WSW,248,0.0,0.0,98,0.00,CLR,,0.00,WeatherDisplay:10.37,2013-06-23 11:07:00,
2013-06-23 07:12:00,74.8,74.2,30.21,WSW,248,0.0,0.0,98,0.00,CLR,,0.00,WeatherDisplay:10.37,2013-06-23 11:12:00,
2013-06-23 07:17:00,75.2,74.6,30.21,WSW,248,0.0,0.0,98,0.00,CLR,,0.00,WeatherDisplay:10.37,2013-06-23 11:17:00,
2013-06-23 07:22:00,75.6,75.0,30.21,WSW,248,0.0,0.0,98,0.00,CLR,,0.00,WeatherDisplay:10.37,2013-06-23 11:22:00,
2013-06-23 07:27:00,75.7,75.1,30.21,WSW,248,0.0,0.0,98,0.00,CLR,,0.00,WeatherDisplay:10.37,2013-06-23 11:27:00,
2013-06-23 07:32:00,75.9,75.3,30.21,WSW,248,0.0,0.0,98,0.00,CLR,,0.00,WeatherDisplay:10.37,2013-06-23 11:32:00,
2013-06-23 07:37:00,75.9,75.3,30.21,WSW,248,0.0,0.0,98,0.00,CLR,,0.00,WeatherDisplay:10.37,2013-06-23 11:37:00,
2013-06-23 07:42:00,75.9,75.3,30.21,WSW,248,0.0,0.0,98,0.00,CLR,,0.00,WeatherDisplay:10.37,2013-06-23 11:42:00,
2013-06-23 07:47:00,75.9,75.3,30.21,WSW,248,0.0,0.0,98,0.00,CLR,,0.00,WeatherDisplay:10.37,2013-06-23 11:47:00,
2013-06-23 07:52:00,76.6,76.0,30.21,WSW,248,0.0,0.0,98,0.00,CLR,,0.00,WeatherDisplay:10.37,2013-06-23 11:52:00,
2013-06-23 07:57:00,78.8,78.2,30.21,WSW,248,0.0,0.0,98,0.00,CLR,,0.00,WeatherDisplay:10.37,2013-06-23 11:57:00,
2013-06-23 08:02:00,80.8,80.2,30.21,WSW,248,0.0,0.0,98,0.00,CLR,,0.00,WeatherDisplay:10.37,2013-06-23 12:02:00,
2013-06-23 08:07:00,82.6,82.0,30.21,WSW,248,0.0,0.0,98,0.00,CLR,,0.00,WeatherDisplay:10.37,2013-06-23 12:07:00,
2013-06-23 08:12:00,83.7,80.1,30.21,WNW,292,0.0,0.0,89,0.00,CLR,,0.00,WeatherDisplay:10.37,2013-06-23 12:12:00,
2013-06-23 08:17:00,83.8,78.8,30.21,WNW,292,0.0,0.0,85,0.00,CLR,,0.00,WeatherDisplay:10.37,2013-06-23 12:17:00,
2013-06-23 08:22:00,83.8,77.4,30.21,WNW,292,3.5,3.5,81,0.00,CLR,,0.00,WeatherDisplay:10.37,2013-06-23 12:22:00,
2013-06-23 08:27:00,83.8,75.8,30.21,WNW,292,3.5,3.5,77,0.00,CLR,,0.00,WeatherDisplay:10.37,2013-06-23 12:27:00,
2013-06-23 08:32:00,83.8,74.7,30.21,WNW,292,2.3,0.0,74,0.00,CLR,,0.00,WeatherDisplay:10.37,2013-06-23 12:32:00,
2013-06-23 08:37:00,83.8,74.7,30.21,WNW,292,2.0,2.0,74,0.00,CLR,,0.00,WeatherDisplay:10.37,2013-06-23 12:37:00,
2013-06-23 08:42:00,83.8,73.0,30.21,West,270,4.6,4.6,70,0.00,CLR,,0.00,WeatherDisplay:10.37,2013-06-23 12:42:00,
2013-06-23 08:47:00,83.8,72.6,30.21,SW,225,3.8,3.8,69,0.00,CLR,,0.00,WeatherDisplay:10.37,2013-06-23 12:47:00,
2013-06-23 08:52:00,81.5,76.2,30.21,SW,225,3.5,3.5,84,0.00,CLR,,0.00,WeatherDisplay:10.37,2013-06-23 12:52:00,
2013-06-23 08:57:00,81.7,76.4,30.21,SW,225,2.3,2.3,84,0.00,CLR,,0.00,WeatherDisplay:10.37,2013-06-23 12:57:00,
2013-06-23 09:02:00,81.3,75.6,30.21,SW,225,0.0,0.0,83,0.00,CLR,,0.00,WeatherDisplay:10.37,2013-06-23 13:02:00,
2013-06-23 09:07:00,81.9,76.2,30.21,WSW,248,3.5,3.5,83,0.00,CLR,,0.00,WeatherDisplay:10.37,2013-06-23 13:07:00,
2013-06-23 09:12:00,82.6,75.8,30.21,WSW,248,4.6,4.6,80,0.00,CLR,,0.00,WeatherDisplay:10.37,2013-06-23 13:12:00,
2013-06-23 09:17:00,81.9,75.9,30.21,WSW,248,3.5,3.5,82,0.00,CLR,,0.00,WeatherDisplay:10.37,2013-06-23 13:17:00,
2013-06-23 09:22:00,81.6,73.7,30.21,WSW,248,4.6,4.6,77,0.00,CLR,,0.00,WeatherDisplay:10.37,2013-06-23 13:22:00,
2013-06-23 09:27:00,82.1,71.4,30.21,WSW,248,3.5,3.5,70,0.00,CLR,,0.00,WeatherDisplay:10.37,2013-06-23 13:27:00,
2013-06-23 09:32:00,81.3,76.0,30.21,WSW,248,0.0,0.0,84,0.00,CLR,,0.00,WeatherDisplay:10.37,2013-06-23 13:32:00,
2013-06-23 09:37:00,80.6,75.7,30.21,WSW,248,0.0,0.0,85,0.00,CLR,,0.00,WeatherDisplay:10.37,2013-06-23 13:37:00,
2013-06-23 09:42:00,82.2,76.2,30.21,WSW,248,0.0,0.0,82,0.00,CLR,,0.00,WeatherDisplay:10.37,2013-06-23 13:42:00,
2013-06-23 09:47:00,81.3,75.6,30.21,SW,225,3.8,3.8,83,0.00,CLR,,0.00,WeatherDisplay:10.37,2013-06-23 13:47:00,
2013-06-23 09:52:00,82.4,75.6,30.21,WSW,248,3.5,3.5,80,0.00,CLR,,0.00,WeatherDisplay:10.37,2013-06-23 13:52:00,
2013-06-23 09:57:00,82.6,75.8,30.21,WSW,248,3.5,3.5,80,0.00,CLR,,0.00,WeatherDisplay:10.37,2013-06-23 13:57:00,
2013-06-23 10:03:00,81.9,75.9,30.21,South,180,0.0,0.0,82,0.00,CLR,,0.00,WeatherDisplay:10.37,2013-06-23 14:03:00,
2013-06-23 10:08:00,82.4,75.6,30.21,WSW,248,3.5,3.5,80,0.00,CLR,,0.00,WeatherDisplay:10.37,2013-06-23 14:08:00,
2013-06-23 10:13:00,82.0,76.0,30.21,WSW,248,0.0,0.0,82,0.00,CLR,,0.00,WeatherDisplay:10.37,2013-06-23 14:13:00,
2013-06-23 10:18:00,82.7,73.2,30.21,WSW,248,0.0,0.0,73,0.00,CLR,,0.00,WeatherDisplay:10.37,2013-06-23 14:18:00,
2013-06-23 10:23:00,83.1,73.2,30.21,WSW,248,0.0,0.0,72,0.00,CLR,,0.00,WeatherDisplay:10.37,2013-06-23 14:23:00,
2013-06-23 10:28:00,83.2,74.0,30.21,WSW,248,0.0,0.0,74,0.00,CLR,,0.00,WeatherDisplay:10.37,2013-06-23 14:28:00,
2013-06-23 10:33:00,83.2,74.8,30.21,West,270,0.0,0.0,76,0.00,CLR,,0.00,WeatherDisplay:10.37,2013-06-23 14:33:00,
2013-06-23 10:38:00,83.2,75.2,30.21,West,270,0.0,0.0,77,0.00,CLR,,0.00,WeatherDisplay:10.37,2013-06-23 14:38:00,
2013-06-23 10:43:00,84.0,76.0,30.21,West,270,0.0,0.0,77,0.00,CLR,,0.00,WeatherDisplay:10.37,2013-06-23 14:43:00,
2013-06-23 10:48:00,83.8,75.8,30.21,West,270,0.0,0.0,77,0.00,CLR,,0.00,WeatherDisplay:10.37,2013-06-23 14:48:00,
2013-06-23 10:53:00,83.8,76.2,30.21,West,270,0.0,0.0,78,0.00,CLR,,0.00,WeatherDisplay:10.37,2013-06-23 14:53:00,
2013-06-23 10:58:00,83.7,76.1,30.21,West,270,0.0,0.0,78,0.00,CLR,,0.00,WeatherDisplay:10.37,2013-06-23 14:58:00,
2013-06-23 11:03:00,84.2,76.2,30.21,West,270,0.0,0.0,77,0.00,CLR,,0.00,WeatherDisplay:10.37,2013-06-23 15:03:00,
2013-06-23 11:08:00,83.7,76.1,30.21,West,270,0.0,0.0,78,0.00,CLR,,0.00,WeatherDisplay:10.37,2013-06-23 15:08:00,
2013-06-23 11:13:00,83.3,75.7,30.21,West,270,0.0,0.0,78,0.00,CLR,,0.00,WeatherDisplay:10.37,2013-06-23 15:13:00,
2013-06-23 11:18:00,83.5,76.3,30.21,SW,225,0.0,0.0,79,0.00,CLR,,0.00,WeatherDisplay:10.37,2013-06-23 15:18:00,
2013-06-23 11:23:00,83.3,76.5,30.21,SW,225,0.0,0.0,80,0.00,CLR,,0.00,WeatherDisplay:10.37,2013-06-23 15:23:00,
2013-06-23 11:28:00,83.1,76.7,30.21,SSE,158,4.6,4.6,81,0.00,CLR,,0.00,WeatherDisplay:10.37,2013-06-23 15:28:00,
2013-06-23 11:33:00,81.5,76.9,30.21,SE,135,2.9,2.9,86,0.00,CLR,,0.00,WeatherDisplay:10.37,2013-06-23 15:33:00,
2013-06-23 11:38:00,83.3,77.2,30.21,SSW,202,3.5,3.5,82,0.00,CLR,,0.00,WeatherDisplay:10.37,2013-06-23 15:38:00,
2013-06-23 11:43:00,84.0,77.5,30.21,ENE,68,3.5,3.5,81,0.00,CLR,,0.00,WeatherDisplay:10.37,2013-06-23 15:43:00,
2013-06-23 11:48:00,83.8,76.2,30.21,WNW,292,4.6,4.6,78,0.00,CLR,,0.00,WeatherDisplay:10.37,2013-06-23 15:48:00,
2013-06-23 11:53:00,82.8,76.4,30.21,WNW,292,0.0,0.0,81,0.00,CLR,,0.00,WeatherDisplay:10.37,2013-06-23 15:53:00,
2013-06-23 11:58:00,82.9,76.8,30.21,WNW,292,0.0,0.0,82,0.00,CLR,,0.00,WeatherDisplay:10.37,2013-06-23 15:58:00,
2013-06-23 12:04:00,83.4,74.7,30.21,SW,225,0.0,0.0,75,0.00,CLR,,0.00,WeatherDisplay:10.37,2013-06-23 16:04:00,
2013-06-23 12:09:00,83.6,74.0,30.21,SW,225,0.0,0.0,73,0.00,CLR,,0.00,WeatherDisplay:10.37,2013-06-23 16:09:00,
2013-06-23 12:14:00,83.6,74.4,30.21,SW,225,0.0,0.0,74,0.00,CLR,,0.00,WeatherDisplay:10.37,2013-06-23 16:14:00,
2013-06-23 12:19:00,83.6,74.8,30.21,SW,225,0.0,0.0,75,0.00,CLR,,0.00,WeatherDisplay:10.37,2013-06-23 16:19:00,
2013-06-23 12:24:00,83.6,75.6,30.21,West,270,0.0,0.0,77,0.00,CLR,,0.00,WeatherDisplay:10.37,2013-06-23 16:24:00,
2013-06-23 12:29:00,82.4,76.3,30.21,East,90,3.5,3.5,82,0.03,RA,,0.03,WeatherDisplay:10.37,2013-06-23 16:29:00,
2013-06-23 12:34:00,81.7,76.4,30.21,WSW,248,0.0,0.4,84,0.04,RA,,0.04,WeatherDisplay:10.37,2013-06-23 16:34:00,
2013-06-23 12:39:00,81.1,76.2,30.21,WSW,248,0.0,0.0,85,0.04,RA,,0.04,WeatherDisplay:10.37,2013-06-23 16:39:00,
2013-06-23 12:44:00,81.3,77.1,30.21,WSW,248,3.5,3.5,87,0.04,CLR,,0.04,WeatherDisplay:10.37,2013-06-23 16:44:00,
2013-06-23 12:49:00,81.9,77.6,30.21,WSW,248,0.0,0.0,87,0.04,CLR,,0.04,WeatherDisplay:10.37,2013-06-23 16:49:00,
2013-06-23 12:54:00,82.6,78.7,30.21,WSW,248,0.0,0.0,88,0.04,CLR,,0.04,WeatherDisplay:10.37,2013-06-23 16:54:00,
2013-06-23 12:57:00,82.9,78.6,30.21,WSW,248,2.9,2.9,87,0.04,CLR,,0.04,WeatherDisplay:10.37,2013-06-23 16:57:00,
2013-06-23 13:02:00,83.5,78.9,30.21,West,270,3.5,0.0,86,0.04,CLR,,0.04,WeatherDisplay:10.37,2013-06-23 17:02:00,
2013-06-23 13:07:00,83.7,78.0,30.21,South,180,3.5,3.5,83,0.04,CLR,,0.04,WeatherDisplay:10.37,2013-06-23 17:07:00,
2013-06-23 13:12:00,83.7,77.3,30.21,SW,225,3.5,3.5,81,0.04,CLR,,0.04,WeatherDisplay:10.37,2013-06-23 17:12:00,
2013-06-23 13:17:00,83.7,76.5,30.21,WSW,248,3.8,3.8,79,0.04,CLR,,0.04,WeatherDisplay:10.37,2013-06-23 17:17:00,
2013-06-23 13:22:00,81.0,76.8,30.21,WSW,248,3.5,0.0,87,0.04,CLR,,0.04,WeatherDisplay:10.37,2013-06-23 17:22:00,
2013-06-23 13:27:00,79.9,79.3,30.21,WSW,248,0.0,0.0,98,0.02,CLR,,0.04,WeatherDisplay:10.37,2013-06-23 17:27:00,
2013-06-23 13:32:00,81.7,77.8,30.21,WSW,248,0.0,0.0,88,0.00,CLR,,0.04,WeatherDisplay:10.37,2013-06-23 17:32:00,
2013-06-23 13:37:00,81.1,77.5,30.21,West,270,4.6,4.6,89,0.00,CLR,,0.04,WeatherDisplay:10.37,2013-06-23 17:37:00,
2013-06-23 13:42:00,81.7,76.7,30.21,SW,225,4.6,4.6,85,0.00,CLR,,0.04,WeatherDisplay:10.37,2013-06-23 17:42:00,
2013-06-23 13:47:00,82.2,76.9,30.21,WSW,248,3.5,3.5,84,0.00,CLR,,0.04,WeatherDisplay:10.37,2013-06-23 17:47:00,
2013-06-23 13:52:00,81.5,76.9,30.21,WSW,248,4.7,4.7,86,0.00,CLR,,0.04,WeatherDisplay:10.37,2013-06-23 17:52:00,
2013-06-23 13:57:00,80.2,76.0,30.21,SW,225,3.5,3.5,87,0.00,CLR,,0.04,WeatherDisplay:10.37,2013-06-23 17:57:00,
2013-06-23 14:02:00,82.6,76.5,30.21,SW,225,0.0,0.7,82,0.00,CLR,,0.04,WeatherDisplay:10.37,2013-06-23 18:02:00,
2013-06-23 14:07:00,83.5,76.3,30.21,West,270,4.6,4.6,79,0.00,CLR,,0.04,WeatherDisplay:10.37,2013-06-23 18:07:00,
2013-06-23 14:12:00,83.8,76.6,30.21,SW,225,3.5,3.5,79,0.00,CLR,,0.04,WeatherDisplay:10.37,2013-06-23 18:12:00,
2013-06-23 14:17:00,84.0,74.4,30.21,West,270,4.6,4.6,73,0.00,CLR,,0.04,WeatherDisplay:10.37,2013-06-23 18:17:00,
2013-06-23 14:22:00,84.0,73.1,30.21,SW,225,3.8,3.8,70,0.00,CLR,,0.04,WeatherDisplay:10.37,2013-06-23 18:22:00,
2013-06-23 14:28:00,84.0,73.1,30.21,WSW,248,3.5,3.5,70,0.00,CLR,,0.04,WeatherDisplay:10.37,2013-06-23 18:28:00,
2013-06-23 14:33:00,81.9,77.3,30.21,WSW,248,2.3,0.0,86,0.00,CLR,,0.04,WeatherDisplay:10.37,2013-06-23 18:33:00,
2013-06-23 14:38:00,83.1,76.3,30.21,SW,225,3.5,0.0,80,0.00,CLR,,0.04,WeatherDisplay:10.37,2013-06-23 18:38:00,
2013-06-23 14:43:00,83.0,73.8,30.21,WSW,248,4.6,4.6,74,0.00,CLR,,0.04,WeatherDisplay:10.37,2013-06-23 18:43:00,
2013-06-23 14:48:00,83.1,74.4,30.21,WSW,248,0.0,0.0,75,0.00,CLR,,0.04,WeatherDisplay:10.37,2013-06-23 18:48:00,
2013-06-23 14:53:00,84.0,75.6,30.21,WSW,248,0.0,0.0,76,0.00,CLR,,0.04,WeatherDisplay:10.37,2013-06-23 18:53:00,
2013-06-23 14:58:00,84.0,75.2,30.21,SSW,202,0.0,0.0,75,0.00,CLR,,0.04,WeatherDisplay:10.37,2013-06-23 18:58:00,
2013-06-23 15:03:00,84.0,75.6,30.21,SW,225,0.0,0.0,76,0.00,CLR,,0.04,WeatherDisplay:10.37,2013-06-23 19:03:00,
2013-06-23 15:08:00,84.0,76.0,30.21,SW,225,0.0,0.0,77,0.00,CLR,,0.04,WeatherDisplay:10.37,2013-06-23 19:08:00,
2013-06-23 15:13:00,84.0,76.8,30.21,WNW,292,0.0,0.0,79,0.00,CLR,,0.04,WeatherDisplay:10.37,2013-06-23 19:13:00,
2013-06-23 15:18:00,84.0,76.4,30.21,SW,225,3.8,3.8,78,0.00,CLR,,0.04,WeatherDisplay:10.37,2013-06-23 19:18:00,
2013-06-23 15:23:00,81.9,76.6,30.21,SW,225,3.5,3.5,84,0.00,CLR,,0.04,WeatherDisplay:10.37,2013-06-23 19:23:00,
2013-06-23 15:28:00,81.5,76.9,30.21,SSE,158,3.5,3.5,86,0.00,CLR,,0.04,WeatherDisplay:10.37,2013-06-23 19:28:00,
2013-06-23 15:33:00,83.7,76.9,30.21,WSW,248,4.6,4.6,80,0.00,CLR,,0.04,WeatherDisplay:10.37,2013-06-23 19:33:00,
2013-06-23 15:38:00,83.1,76.3,30.21,SSW,202,3.5,3.5,80,0.00,CLR,,0.04,WeatherDisplay:10.37,2013-06-23 19:38:00,
2013-06-23 15:43:00,82.4,76.7,30.21,South,180,3.5,3.5,83,0.00,CLR,,0.05,WeatherDisplay:10.37,2013-06-23 19:43:00,
2013-06-23 15:48:00,82.2,77.2,30.21,SSE,158,6.9,6.9,85,0.01,RA,,0.05,WeatherDisplay:10.37,2013-06-23 19:48:00,
2013-06-23 15:53:00,81.9,76.9,30.21,West,270,0.0,0.0,85,0.01,,,0.05,WeatherDisplay:10.37,2013-06-23 19:53:00,
2013-06-23 15:58:00,82.6,76.9,30.21,West,270,0.0,0.0,83,0.01,CLR,,0.05,WeatherDisplay:10.37,2013-06-23 19:58:00,
2013-06-23 16:03:00,82.9,77.2,30.21,East,90,0.0,0.0,83,0.01,CLR,,0.05,WeatherDisplay:10.37,2013-06-23 20:03:00,
2013-06-23 16:08:00,83.1,77.0,30.21,SW,225,0.0,0.0,82,0.01,CLR,,0.05,WeatherDisplay:10.37,2013-06-23 20:08:00,
2013-06-23 16:13:00,82.8,76.4,30.21,NNE,22,3.5,3.5,81,0.01,CLR,,0.05,WeatherDisplay:10.37,2013-06-23 20:13:00,
2013-06-23 16:18:00,82.2,76.5,30.21,SSW,202,3.8,3.8,83,0.01,CLR,,0.05,WeatherDisplay:10.37,2013-06-23 20:18:00,
2013-06-23 16:23:00,82.2,76.2,30.21,SW,225,3.5,3.5,82,0.01,CLR,,0.05,WeatherDisplay:10.37,2013-06-23 20:23:00,
2013-06-23 16:28:00,82.2,76.5,30.21,SW,225,2.3,0.0,83,0.01,CLR,,0.05,WeatherDisplay:10.37,2013-06-23 20:28:00,
2013-06-23 16:33:00,82.8,77.5,30.21,SW,225,0.0,0.0,84,0.01,CLR,,0.05,WeatherDisplay:10.37,2013-06-23 20:33:00,
2013-06-23 16:38:00,82.8,76.7,30.21,SSW,202,0.0,0.0,82,0.01,CLR,,0.05,WeatherDisplay:10.37,2013-06-23 20:38:00,
2013-06-23 16:43:00,82.9,76.8,30.21,SSW,202,4.6,4.6,82,0.01,CLR,,0.05,WeatherDisplay:10.37,2013-06-23 20:43:00,
2013-06-23 16:48:00,82.8,76.7,30.21,SSE,158,3.5,3.5,82,0.00,CLR,,0.05,WeatherDisplay:10.37,2013-06-23 20:48:00,
2013-06-23 16:53:00,81.9,76.2,30.21,South,180,3.8,3.8,83,0.00,CLR,,0.05,WeatherDisplay:10.37,2013-06-23 20:53:00,
2013-06-23 16:58:00,82.0,76.0,30.21,WSW,248,4.6,4.6,82,0.00,CLR,,0.05,WeatherDisplay:10.37,2013-06-23 20:58:00,
2013-06-23 17:03:00,81.9,76.2,30.21,WSW,248,3.5,3.5,83,0.00,CLR,,0.05,WeatherDisplay:10.37,2013-06-23 21:03:00,
2013-06-23 17:08:00,81.7,75.7,30.21,SW,225,4.6,4.6,82,0.00,CLR,,0.05,WeatherDisplay:10.37,2013-06-23 21:08:00,
2013-06-23 17:13:00,82.0,76.3,30.21,SW,225,0.0,0.0,83,0.00,CLR,,0.05,WeatherDisplay:10.37,2013-06-23 21:13:00,
2013-06-23 17:18:00,82.0,76.0,30.21,SW,225,0.0,0.0,82,0.00,CLR,,0.05,WeatherDisplay:10.37,2013-06-23 21:18:00,
2013-06-23 17:23:00,82.2,75.8,30.21,SW,225,0.0,0.0,81,0.00,CLR,,0.05,WeatherDisplay:10.37,2013-06-23 21:23:00,
2013-06-23 17:28:00,82.2,75.8,30.21,SW,225,0.0,0.0,81,0.00,CLR,,0.05,WeatherDisplay:10.37,2013-06-23 21:28:00,
2013-06-23 17:33:00,82.2,75.8,30.04,WSW,247,0.0,-999.0,81,-99.99,,,0.05,Acu-Link.com,2013-06-23 21:33:00,
2013-06-23 17:38:00,81.9,75.5,30.21,SW,225,0.0,0.0,81,0.00,CLR,,0.05,WeatherDisplay:10.37,2013-06-23 21:38:00,
2013-06-23 17:43:00,82.0,76.0,30.21,West,270,0.0,0.0,82,0.00,CLR,,0.05,WeatherDisplay:10.37,2013-06-23 21:43:00,
2013-06-23 17:48:00,81.5,75.5,30.21,WSW,248,0.0,0.0,82,0.00,CLR,,0.05,WeatherDisplay:10.37,2013-06-23 21:48:00,
2013-06-23 17:53:00,81.3,75.3,30.21,WSW,248,0.0,0.0,82,0.00,CLR,,0.05,WeatherDisplay:10.37,2013-06-23 21:53:00,
2013-06-23 17:58:00,81.3,74.9,30.21,SW,225,0.0,0.0,81,0.00,CLR,,0.05,WeatherDisplay:10.37,2013-06-23 21:58:00,
2013-06-23 18:03:00,81.1,74.7,30.21,SW,225,0.0,0.0,81,0.00,CLR,,0.05,WeatherDisplay:10.37,2013-06-23 22:03:00,
2013-06-23 18:08:00,81.1,75.1,30.21,SW,225,0.0,0.0,82,0.00,CLR,,0.05,WeatherDisplay:10.37,2013-06-23 22:08:00,
2013-06-23 18:13:00,80.4,75.5,30.21,SSW,202,0.0,0.0,85,0.00,CLR,,0.05,WeatherDisplay:10.37,2013-06-23 22:13:00,
2013-06-23 18:18:00,80.2,75.6,30.21,SW,225,0.0,0.0,86,0.01,RA,,0.06,WeatherDisplay:10.37,2013-06-23 22:18:00,
2013-06-23 18:23:00,79.5,75.3,30.21,SW,225,0.0,0.0,87,0.01,RA,,0.06,WeatherDisplay:10.37,2013-06-23 22:23:00,
2013-06-23 18:34:00,79.3,75.8,30.05,SW,225,0.0,-999.0,89,-99.99,,,0.06,Acu-Link.com,2013-06-23 22:34:00,
2013-06-23 18:49:00,78.3,76.7,30.04,SW,225,0.0,-999.0,95,-99.99,,,0.06,Acu-Link.com,2013-06-23 22:49:00,
2013-06-23 19:04:00,78.1,77.5,30.03,SW,225,0.0,-999.0,98,-99.99,,,0.06,Acu-Link.com,2013-06-23 23:04:00,
2013-06-23 19:09:00,78.1,77.5,30.21,SW,225,0.0,0.0,98,0.01,RA,,0.06,WeatherDisplay:10.37,2013-06-23 23:09:00,
2013-06-23 19:14:00,77.9,77.3,30.21,SW,225,0.0,0.0,98,0.01,RA,,0.06,WeatherDisplay:10.37,2013-06-23 23:14:00,
2013-06-23 19:19:00,77.9,77.3,30.21,SW,225,0.0,0.0,98,0.01,CLR,,0.06,WeatherDisplay:10.37,2013-06-23 23:19:00,
2013-06-23 19:24:00,77.9,77.3,30.21,SW,225,0.0,0.0,98,0.01,CLR,,0.06,WeatherDisplay:10.37,2013-06-23 23:24:00,
2013-06-23 19:29:00,77.9,77.3,30.21,SW,225,0.0,0.0,98,0.01,CLR,,0.06,WeatherDisplay:10.37,2013-06-23 23:29:00,
2013-06-23 19:34:00,77.9,77.3,30.21,SW,225,0.0,0.0,98,0.01,CLR,,0.06,WeatherDisplay:10.37,2013-06-23 23:34:00,
2013-06-23 19:39:00,77.9,77.3,30.21,SSW,202,0.0,0.0,98,0.00,CLR,,0.06,WeatherDisplay:10.37,2013-06-23 23:39:00,
2013-06-23 19:44:00,77.7,77.1,30.21,SSW,202,0.0,0.0,98,0.00,CLR,,0.06,WeatherDisplay:10.37,2013-06-23 23:44:00,
2013-06-23 19:49:00,77.7,77.1,30.21,SSW,202,0.0,0.0,98,0.00,CLR,,0.06,WeatherDisplay:10.37,2013-06-23 23:49:00,
2013-06-23 19:54:00,77.7,77.1,30.21,SSW,202,0.0,0.0,98,0.00,CLR,,0.06,WeatherDisplay:10.37,2013-06-23 23:54:00,
2013-06-23 19:59:00,77.7,77.1,30.21,SSW,202,0.0,0.0,98,0.00,CLR,,0.06,WeatherDisplay:10.37,2013-06-23 23:59:00,
2013-06-23 20:04:00,77.5,76.9,30.21,SSW,202,0.0,0.0,98,0.00,CLR,,0.06,WeatherDisplay:10.37,2013-06-24 00:04:00,
2013-06-23 20:09:00,77.5,76.9,30.21,SSW,202,0.0,0.0,98,0.00,CLR,,0.06,WeatherDisplay:10.37,2013-06-24 00:09:00,
2013-06-23 20:14:00,77.5,76.9,30.21,SSW,202,0.0,0.0,98,0.00,CLR,,0.06,WeatherDisplay:10.37,2013-06-24 00:14:00,
2013-06-23 20:19:00,77.5,76.9,30.21,SW,225,0.0,0.0,98,0.00,CLR,,0.06,WeatherDisplay:10.37,2013-06-24 00:19:00,
2013-06-23 20:24:00,77.5,76.9,30.21,SW,225,0.0,0.0,98,0.00,CLR,,0.06,WeatherDisplay:10.37,2013-06-24 00:24:00,
2013-06-23 20:29:00,77.4,76.8,30.21,WSW,248,0.0,0.0,98,0.00,CLR,,0.06,WeatherDisplay:10.37,2013-06-24 00:29:00,
2013-06-23 20:34:00,77.4,76.8,30.21,South,180,0.0,0.0,98,0.00,CLR,,0.06,WeatherDisplay:10.37,2013-06-24 00:34:00,
2013-06-23 20:39:00,77.4,76.8,30.21,SW,225,0.0,0.0,98,0.00,CLR,,0.06,WeatherDisplay:10.37,2013-06-24 00:39:00,
2013-06-23 20:44:00,77.4,76.8,30.21,SW,225,0.0,0.0,98,0.00,CLR,,0.06,WeatherDisplay:10.37,2013-06-24 00:44:00,
2013-06-23 20:49:00,77.4,76.8,30.21,West,270,0.0,0.0,98,0.00,CLR,,0.06,WeatherDisplay:10.37,2013-06-24 00:49:00,
2013-06-23 20:54:00,77.2,76.6,30.21,West,270,3.5,3.5,98,0.00,CLR,,0.06,WeatherDisplay:10.37,2013-06-24 00:54:00,
2013-06-23 20:59:00,77.2,76.6,30.21,WSW,248,4.7,4.7,98,0.00,CLR,,0.06,WeatherDisplay:10.37,2013-06-24 00:59:00,
2013-06-23 21:04:00,77.2,76.6,30.21,West,270,5.8,5.8,98,0.00,CLR,,0.06,WeatherDisplay:10.37,2013-06-24 01:04:00,
2013-06-23 21:09:00,77.2,76.6,30.21,WSW,248,4.6,4.6,98,0.00,CLR,,0.06,WeatherDisplay:10.37,2013-06-24 01:09:00,
2013-06-23 21:14:00,77.2,76.6,30.21,West,270,6.9,6.9,98,0.00,CLR,,0.06,WeatherDisplay:10.37,2013-06-24 01:14:00,
2013-06-23 21:19:00,77.4,76.8,30.21,WSW,248,3.5,4.0,98,0.00,CLR,,0.06,WeatherDisplay:10.37,2013-06-24 01:19:00,
2013-06-23 21:24:00,77.4,76.8,30.21,WSW,248,4.7,4.7,98,0.00,CLR,,0.06,WeatherDisplay:10.37,2013-06-24 01:24:00,
2013-06-23 21:29:00,77.4,76.8,30.21,SW,225,5.8,5.8,98,0.00,CLR,,0.06,WeatherDisplay:10.37,2013-06-24 01:29:00,
2013-06-23 21:34:00,77.4,76.8,30.21,WSW,248,4.7,4.7,98,0.00,CLR,,0.06,WeatherDisplay:10.37,2013-06-24 01:34:00,
2013-06-23 21:39:00,77.4,76.8,30.21,WSW,248,5.8,5.8,98,0.00,CLR,,0.06,WeatherDisplay:10.37,2013-06-24 01:39:00,
2013-06-23 21:44:00,77.4,76.8,30.21,WSW,248,4.6,4.6,98,0.00,CLR,,0.06,WeatherDisplay:10.37,2013-06-24 01:44:00,
2013-06-23 21:49:00,77.4,76.8,30.21,SW,225,5.8,5.8,98,0.00,CLR,,0.06,WeatherDisplay:10.37,2013-06-24 01:49:00,
2013-06-23 21:54:00,77.4,76.8,30.21,SW,225,5.8,5.8,98,0.00,CLR,,0.06,WeatherDisplay:10.37,2013-06-24 01:54:00,
2013-06-23 21:59:00,77.4,76.8,30.21,WSW,248,4.7,4.7,98,0.00,CLR,,0.06,WeatherDisplay:10.37,2013-06-24 01:59:00,
2013-06-23 22:04:00,77.4,76.8,30.21,WSW,248,0.0,0.0,98,0.00,CLR,,0.06,WeatherDisplay:10.37,2013-06-24 02:04:00,
2013-06-23 22:09:00,77.4,76.8,30.21,WSW,248,4.7,4.7,98,0.00,CLR,,0.06,WeatherDisplay:10.37,2013-06-24 02:09:00,
2013-06-23 22:14:00,77.4,76.8,30.21,WSW,248,5.8,5.8,98,0.00,CLR,,0.06,WeatherDisplay:10.37,2013-06-24 02:14:00,
2013-06-23 22:19:00,77.5,76.9,30.21,WSW,248,5.8,5.8,98,0.00,CLR,,0.06,WeatherDisplay:10.37,2013-06-24 02:19:00,
2013-06-23 22:24:00,77.5,76.9,30.21,WSW,248,5.8,5.8,98,0.00,CLR,,0.06,WeatherDisplay:10.37,2013-06-24 02:24:00,
2013-06-23 22:29:00,77.5,76.9,30.21,WSW,248,4.6,4.7,98,0.00,CLR,,0.06,WeatherDisplay:10.37,2013-06-24 02:29:00,
2013-06-23 22:34:00,77.7,77.1,30.21,WSW,248,4.7,4.7,98,0.00,CLR,,0.06,WeatherDisplay:10.37,2013-06-24 02:34:00,
2013-06-23 22:39:00,77.7,77.1,30.21,SW,225,6.9,6.9,98,0.00,CLR,,0.06,WeatherDisplay:10.37,2013-06-24 02:39:00,
2013-06-23 22:44:00,77.7,77.1,30.21,SW,225,10.1,10.1,98,0.00,CLR,,0.06,WeatherDisplay:10.37,2013-06-24 02:44:00,
2013-06-23 22:49:00,77.7,77.1,30.21,West,270,6.9,6.9,98,0.00,CLR,,0.06,WeatherDisplay:10.37,2013-06-24 02:49:00,
2013-06-23 22:54:00,77.5,76.9,30.21,SW,225,5.8,5.8,98,0.00,CLR,,0.06,WeatherDisplay:10.37,2013-06-24 02:54:00,
2013-06-23 22:59:00,77.4,76.8,30.21,WSW,248,6.9,6.9,98,0.00,CLR,,0.06,WeatherDisplay:10.37,2013-06-24 02:59:00,
2013-06-23 23:04:00,77.2,76.6,30.21,WSW,248,4.7,4.7,98,0.00,CLR,,0.06,WeatherDisplay:10.37,2013-06-24 03:04:00,
2013-06-23 23:09:00,77.2,76.6,30.21,WSW,248,6.9,6.9,98,0.00,CLR,,0.06,WeatherDisplay:10.37,2013-06-24 03:09:00,
2013-06-23 23:14:00,77.0,76.4,30.21,WSW,248,4.7,4.7,98,0.00,CLR,,0.06,WeatherDisplay:10.37,2013-06-24 03:14:00,
2013-06-23 23:20:00,77.0,76.4,30.21,WSW,248,4.7,4.7,98,0.00,CLR,,0.06,WeatherDisplay:10.37,2013-06-24 03:20:00,
2013-06-23 23:25:00,77.0,76.4,30.21,SW,225,4.6,4.6,98,0.00,CLR,,0.06,WeatherDisplay:10.37,2013-06-24 03:25:00,
2013-06-23 23:30:00,77.0,76.4,30.21,SW,225,4.7,4.7,98,0.00,CLR,,0.06,WeatherDisplay:10.37,2013-06-24 03:30:00,
2013-06-23 23:35:00,76.6,76.0,30.21,WSW,248,4.6,4.6,98,0.00,CLR,,0.06,WeatherDisplay:10.37,2013-06-24 03:35:00,
2013-06-23 23:40:00,76.6,76.0,30.21,WSW,248,2.9,2.9,98,0.00,CLR,,0.06,WeatherDisplay:10.37,2013-06-24 03:40:00,
2013-06-23 23:45:00,76.6,76.0,30.21,WSW,248,3.5,3.5,98,0.00,CLR,,0.06,WeatherDisplay:10.37,2013-06-24 03:45:00,
2013-06-23 23:50:00,76.6,76.0,30.21,WSW,248,3.8,3.8,98,0.00,CLR,,0.06,WeatherDisplay:10.37,2013-06-24 03:50:00,
2013-06-23 23:55:00,76.5,75.9,30.21,WSW,248,2.9,2.9,98,0.00,CLR,,0.06,WeatherDisplay:10.37,2013-06-24 03:55:00,